• In Lithuania
  • List of Countries
  • For 7 days
  • Water Temperature
  • Satellite Maps
  • Weather Map
  • Weather Widgets
  • user-avatar
    Login

    Hourly Weather Dungarpur

    Today, 21 January, Sunday

    Time Temperature Precipitation Wind Pressure Humidity
    00:00 +20°C° 0 mm 1 mps 733 mmHg 31%
    01:00 +19°C° 0 mm 2 mps 733 mmHg 32%
    02:00 +19°C° 0 mm 2 mps 733 mmHg 33%
    03:00 +18°C° 0 mm 2 mps 733 mmHg 34%
    04:00 +18°C° 0 mm 2 mps 733 mmHg 35%
    05:00 +17°C° 0 mm 2 mps 733 mmHg 37%
    06:00 +18°C° 0 mm 2 mps 733 mmHg 37%
    07:00 +18°C° 0 mm 2 mps 734 mmHg 37%
    08:00 +18°C° 0 mm 2 mps 734 mmHg 37%
    09:00 +21°C° 0 mm 2 mps 734 mmHg 33%
    10:00 +24°C° 0 mm 2 mps 734 mmHg 29%
    11:00 +27°C° 0 mm 2 mps 735 mmHg 25%
    12:00 +28°C° 0 mm 2 mps 734 mmHg 23%
    13:00 +29°C° 0 mm 2 mps 733 mmHg 21%
    14:00 +30°C° 0 mm 1 mps 733 mmHg 19%
    15:00 +30°C° 0 mm 1 mps 732 mmHg 20%
    16:00 +29°C° 0 mm 1 mps 732 mmHg 21%
    17:00 +29°C° 0 mm 1 mps 732 mmHg 22%
    18:00 +27°C° 0 mm 1 mps 732 mmHg 24%
    19:00 +25°C° 0 mm 1 mps 733 mmHg 26%
    20:00 +23°C° 0 mm 2 mps 733 mmHg 28%
    21:00 +23°C° 0 mm 2 mps 733 mmHg 29%
    22:00 +21°C° 0 mm 2 mps 733 mmHg 29%
    23:00 +21°C° 0 mm 2 mps 733 mmHg 30%

    Tomorrow, 22 January, Monday

    Time Temperature Precipitation Wind Pressure Humidity
    00:00 +20°C° 0 mm 2 mps 733 mmHg 30%
    01:00 +20°C° 0 mm 2 mps 732 mmHg 30%
    02:00 +20°C° 0 mm 2 mps 732 mmHg 30%
    03:00 +19°C° 0 mm 2 mps 732 mmHg 31%
    04:00 +19°C° 0 mm 2 mps 732 mmHg 32%
    05:00 +18°C° 0 mm 2 mps 731 mmHg 33%
    06:00 +19°C° 0 mm 2 mps 732 mmHg 33%
    07:00 +19°C° 0 mm 2 mps 732 mmHg 33%
    08:00 +19°C° 0 mm 2 mps 733 mmHg 33%
    09:00 +23°C° 0 mm 2 mps 733 mmHg 30%
    10:00 +25°C° 0 mm 2 mps 733 mmHg 26%
    11:00 +28°C° 0 mm 2 mps 733 mmHg 23%
    12:00 +29°C° 0 mm 2 mps 733 mmHg 22%
    13:00 +30°C° 0 mm 2 mps 732 mmHg 21%
    14:00 +31°C° 0 mm 3 mps 731 mmHg 20%
    15:00 +31°C° 0 mm 3 mps 731 mmHg 20%
    16:00 +30°C° 0 mm 3 mps 730 mmHg 21%
    17:00 +30°C° 0 mm 3 mps 730 mmHg 21%
    18:00 +28°C° 0 mm 3 mps 731 mmHg 24%
    19:00 +26°C° 0 mm 3 mps 731 mmHg 26%
    20:00 +24°C° 0 mm 3 mps 731 mmHg 29%
    21:00 +22°C° 0 mm 3 mps 731 mmHg 30%
    22:00 +21°C° 0 mm 3 mps 731 mmHg 32%
    23:00 +20°C° 0 mm 3 mps 731 mmHg 33%

    Day after tomorrow, 23 January, Tuesday

    Time Temperature Precipitation Wind Pressure Humidity
    00:00 +20°C° 0 mm 2 mps 731 mmHg 35%
    01:00 +19°C° 0 mm 2 mps 731 mmHg 36%
    02:00 +20°C° 0 mm 1 mps 730 mmHg 37%
    03:00 +19°C° 0 mm 1 mps 730 mmHg 39%
    04:00 +19°C° 0 mm 1 mps 730 mmHg 40%
    05:00 +18°C° 0 mm 1 mps 730 mmHg 42%
    06:00 +19°C° 0 mm 1 mps 731 mmHg 44%
    07:00 +19°C° 0 mm 1 mps 731 mmHg 45%
    08:00 +19°C° 0 mm 1 mps 732 mmHg 46%
    09:00 +20°C° 0 mm 2 mps 732 mmHg 44%
    10:00 +22°C° 0 mm 3 mps 732 mmHg 41%
    11:00 +25°C° 0 mm 4 mps 733 mmHg 38%
    12:00 +26°C° 0 mm 5 mps 732 mmHg 34%
    13:00 +27°C° 0 mm 6 mps 731 mmHg 30%
    14:00 +28°C° 0 mm 7 mps 730 mmHg 25%
    15:00 +27°C° 0 mm 6 mps 730 mmHg 25%
    16:00 +26°C° 0 mm 6 mps 730 mmHg 25%
    17:00 +26°C° 0 mm 5 mps 730 mmHg 24%
    18:00 +23°C° 0 mm 4 mps 731 mmHg 28%
    19:00 +21°C° 0 mm 4 mps 731 mmHg 31%
    20:00 +20°C° 0 mm 3 mps 732 mmHg 35%
    21:00 +19°C° 0 mm 3 mps 732 mmHg 36%
    22:00 +19°C° 0 mm 3 mps 732 mmHg 38%
    23:00 +18°C° 0 mm 2 mps 732 mmHg 40%

    24 January, Wednesday

    Time Temperature Precipitation Wind Pressure Humidity
    00:00 +18°C° 0 mm 3 mps 732 mmHg 41%
    01:00 +17°C° 0 mm 3 mps 732 mmHg 43%
    02:00 +17°C° 0 mm 3 mps 732 mmHg 44%
    03:00 +16°C° 0 mm 3 mps 732 mmHg 43%
    04:00 +16°C° 0 mm 3 mps 732 mmHg 41%
    05:00 +15°C° 0 mm 2 mps 732 mmHg 40%
    06:00 +16°C° 0 mm 2 mps 732 mmHg 38%
    07:00 +16°C° 0 mm 2 mps 733 mmHg 36%
    08:00 +17°C° 0 mm 2 mps 734 mmHg 34%
    09:00 +19°C° 0 mm 2 mps 734 mmHg 28%
    10:00 +22°C° 0 mm 3 mps 735 mmHg 22%
    11:00 +25°C° 0 mm 3 mps 735 mmHg 17%
    12:00 +26°C° 0 mm 3 mps 734 mmHg 15%
    13:00 +27°C° 0 mm 3 mps 733 mmHg 14%
    14:00 +28°C° 0 mm 3 mps 733 mmHg 13%
    15:00 +27°C° 0 mm 2 mps 733 mmHg 14%
    16:00 +27°C° 0 mm 2 mps 732 mmHg 15%
    17:00 +27°C° 0 mm 2 mps 732 mmHg 17%
    18:00 +25°C° 0 mm 2 mps 733 mmHg 19%
    19:00 +23°C° 0 mm 2 mps 733 mmHg 22%
    20:00 +20°C° 0 mm 2 mps 733 mmHg 24%
    21:00 +19°C° 0 mm 3 mps 733 mmHg 27%
    22:00 +18°C° 0 mm 3 mps 733 mmHg 29%
    23:00 +18°C° 0 mm 3 mps 733 mmHg 31%

    25 January, Thursday

    Time Temperature Precipitation Wind Pressure Humidity
    00:00 +17°C° 0 mm 3 mps 733 mmHg 32%
    01:00 +17°C° 0 mm 3 mps 733 mmHg 34%
    02:00 +16°C° 0 mm 3 mps 732 mmHg 36%
    03:00 +16°C° 0 mm 3 mps 732 mmHg 37%
    04:00 +15°C° 0 mm 2 mps 732 mmHg 38%
    05:00 +15°C° 0 mm 2 mps 732 mmHg 40%
    06:00 +15°C° 0 mm 2 mps 733 mmHg 40%
    07:00 +16°C° 0 mm 2 mps 733 mmHg 40%
    08:00 +16°C° 0 mm 2 mps 734 mmHg 40%
    09:00 +19°C° 0 mm 2 mps 734 mmHg 35%
    10:00 +21°C° 0 mm 2 mps 734 mmHg 30%
    11:00 +24°C° 0 mm 2 mps 735 mmHg 25%
    12:00 +26°C° 0 mm 2 mps 734 mmHg 22%
    13:00 +27°C° 0 mm 2 mps 733 mmHg 19%
    14:00 +28°C° 0 mm 1 mps 732 mmHg 17%
    15:00 +28°C° 0 mm 1 mps 732 mmHg 17%
    16:00 +27°C° 0 mm 1 mps 732 mmHg 17%
    17:00 +27°C° 0 mm 1 mps 732 mmHg 18%
    18:00 +25°C° 0 mm 1 mps 732 mmHg 20%
    19:00 +23°C° 0 mm 1 mps 732 mmHg 22%
    20:00 +21°C° 0 mm 1 mps 733 mmHg 24%
    21:00 +21°C° 0 mm 1 mps 733 mmHg 24%
    22:00 +20°C° 0 mm 1 mps 733 mmHg 25%
    23:00 +18°C° 0 mm 2 mps 733 mmHg 25%

    26 January, Friday

    Time Temperature Precipitation Wind Pressure Humidity
    00:00 +18°C° 0 mm 2 mps 732 mmHg 26%
    01:00 +17°C° 0 mm 2 mps 732 mmHg 27%
    02:00 +17°C° 0 mm 2 mps 732 mmHg 28%
    03:00 +16°C° 0 mm 2 mps 732 mmHg 29%
    04:00 +16°C° 0 mm 2 mps 732 mmHg 30%
    05:00 +16°C° 0 mm 2 mps 732 mmHg 31%
    06:00 +16°C° 0 mm 2 mps 732 mmHg 31%
    07:00 +16°C° 0 mm 2 mps 733 mmHg 31%
    08:00 +17°C° 0 mm 2 mps 733 mmHg 32%
    09:00 +19°C° 0 mm 3 mps 734 mmHg 28%
    10:00 +22°C° 0 mm 3 mps 734 mmHg 25%
    11:00 +25°C° 0 mm 3 mps 734 mmHg 22%
    12:00 +27°C° 0 mm 2 mps 734 mmHg 20%
    13:00 +28°C° 0 mm 2 mps 733 mmHg 18%
    14:00 +29°C° 0 mm 1 mps 732 mmHg 16%
    15:00 +28°C° 0 mm 1 mps 732 mmHg 16%
    16:00 +28°C° 0 mm 1 mps 732 mmHg 17%
    17:00 +28°C° 0 mm 1 mps 732 mmHg 18%
    18:00 +26°C° 0 mm 1 mps 732 mmHg 19%
    19:00 +24°C° 0 mm 1 mps 732 mmHg 21%
    20:00 +22°C° 0 mm 1 mps 732 mmHg 22%
    21:00 +22°C° 0 mm 1 mps 732 mmHg 23%
    22:00 +21°C° 0 mm 1 mps 732 mmHg 23%
    23:00 +19°C° 0 mm 2 mps 732 mmHg 24%
    Show more